Time,TemperatureF,DewpointF,PressureIn,WindDirection,WindDirectionDegrees,WindSpeedMPH,WindSpeedGustMPH,Humidity,HourlyPrecipIn,Conditions,Clouds,dailyrainin,SolarRadiationWatts/m^2,SoftwareType,DateUTC
2013-11-13 00:01:00,40.0,22.0,-100.00,WSW,253,2.0,4.0,48,0.00,,,0.00,0.000000,,2013-11-13 07:01:00,
2013-11-13 00:11:00,40.0,22.0,-100.00,WSW,253,2.0,4.0,48,0.00,,,0.00,0.000000,,2013-11-13 07:11:00,
2013-11-13 00:42:00,38.0,25.0,-100.00,WSW,253,2.0,4.0,60,0.00,,,0.00,0.000000,,2013-11-13 07:42:00,
2013-11-13 00:52:00,38.0,25.0,-100.00,WSW,253,2.0,4.0,60,0.00,,,0.00,0.000000,,2013-11-13 07:52:00,
2013-11-13 01:01:00,38.0,25.0,-100.00,WSW,253,2.0,4.0,60,0.00,,,0.00,0.000000,,2013-11-13 08:01:00,
2013-11-13 01:11:00,38.0,25.0,-100.00,WSW,253,2.0,4.0,60,0.00,,,0.00,0.000000,,2013-11-13 08:11:00,
2013-11-13 01:42:00,37.0,29.0,-100.00,West,259,2.0,4.0,72,0.00,,,0.00,0.000000,,2013-11-13 08:42:00,
2013-11-13 01:52:00,37.0,29.0,-100.00,West,259,2.0,4.0,72,0.00,,,0.00,0.000000,,2013-11-13 08:52:00,
2013-11-13 02:03:00,37.0,29.0,-100.00,West,259,2.0,4.0,72,0.00,,,0.00,0.000000,,2013-11-13 09:03:00,
2013-11-13 02:11:00,37.0,29.0,-100.00,West,259,2.0,4.0,72,0.00,,,0.00,0.000000,,2013-11-13 09:11:00,
2013-11-13 02:43:00,36.0,30.0,-100.00,WSW,248,2.0,5.0,80,0.00,,,-99.99,0.000000,,2013-11-13 09:43:00,
2013-11-13 02:52:00,36.0,30.0,-100.00,WSW,248,2.0,5.0,80,0.00,,,-99.99,0.000000,,2013-11-13 09:52:00,
2013-11-13 03:02:00,36.0,30.0,-100.00,WSW,248,2.0,5.0,80,0.00,,,-99.99,0.000000,,2013-11-13 10:02:00,
2013-11-13 03:13:00,36.0,30.0,-100.00,WSW,248,2.0,5.0,80,0.00,,,-99.99,0.000000,,2013-11-13 10:13:00,
2013-11-13 03:42:00,36.0,31.0,-100.00,West,259,2.0,4.0,83,0.00,,,0.00,0.000000,,2013-11-13 10:42:00,
2013-11-13 03:52:00,36.0,31.0,-100.00,West,259,2.0,4.0,83,0.00,,,0.00,0.000000,,2013-11-13 10:52:00,
2013-11-13 04:02:00,36.0,31.0,-100.00,West,259,2.0,4.0,83,0.00,,,0.00,0.000000,,2013-11-13 11:02:00,
2013-11-13 04:12:00,36.0,31.0,-100.00,West,259,2.0,4.0,83,0.00,,,0.00,0.000000,,2013-11-13 11:12:00,
2013-11-13 04:42:00,36.0,32.0,-100.00,WSW,251,2.0,4.0,84,0.00,,,-99.99,0.000000,,2013-11-13 11:42:00,
2013-11-13 04:52:00,36.0,32.0,-100.00,WSW,251,2.0,4.0,84,0.00,,,-99.99,0.000000,,2013-11-13 11:52:00,
2013-11-13 05:01:00,36.0,32.0,-100.00,WSW,251,2.0,4.0,84,0.00,,,-99.99,0.000000,,2013-11-13 12:01:00,
2013-11-13 05:11:00,36.0,32.0,-100.00,WSW,251,2.0,4.0,84,0.00,,,-99.99,0.000000,,2013-11-13 12:11:00,
2013-11-13 05:42:00,36.0,31.0,-100.00,WSW,248,2.0,4.0,81,0.00,,,0.00,0.000000,,2013-11-13 12:42:00,
2013-11-13 05:52:00,36.0,31.0,-100.00,WSW,248,2.0,4.0,81,0.00,,,0.00,0.000000,,2013-11-13 12:52:00,
2013-11-13 06:01:00,36.0,31.0,-100.00,WSW,248,2.0,4.0,81,0.00,,,0.00,0.000000,,2013-11-13 13:01:00,
2013-11-13 06:11:00,36.0,31.0,-100.00,WSW,248,2.0,4.0,81,0.00,,,0.00,0.000000,,2013-11-13 13:11:00,
2013-11-13 06:42:00,36.0,31.0,-100.00,WSW,248,1.0,4.0,83,0.00,,,0.00,0.000000,,2013-11-13 13:42:00,
2013-11-13 06:52:00,36.0,31.0,-100.00,WSW,248,1.0,4.0,83,0.00,,,0.00,0.000000,,2013-11-13 13:52:00,
2013-11-13 07:02:00,36.0,31.0,-100.00,WSW,248,1.0,4.0,83,0.00,,,0.00,0.000000,,2013-11-13 14:02:00,
2013-11-13 07:11:00,36.0,31.0,-100.00,WSW,248,1.0,4.0,83,0.00,,,0.00,0.000000,,2013-11-13 14:11:00,
2013-11-13 07:42:00,35.0,31.0,-100.00,SW,234,3.0,6.0,86,0.00,,,0.00,0.000000,,2013-11-13 14:42:00,
2013-11-13 07:53:00,35.0,31.0,-100.00,SW,234,3.0,6.0,86,0.00,,,0.00,0.000000,,2013-11-13 14:53:00,
2013-11-13 08:02:00,35.0,31.0,-100.00,SW,234,3.0,6.0,86,0.00,,,0.00,0.000000,,2013-11-13 15:02:00,
2013-11-13 08:12:00,35.0,31.0,-100.00,SW,234,3.0,6.0,86,0.00,,,0.00,0.000000,,2013-11-13 15:12:00,
2013-11-13 08:43:00,35.0,31.0,-100.00,WSW,239,2.0,6.0,85,0.00,,,0.00,0.000000,,2013-11-13 15:43:00,
2013-11-13 08:53:00,35.0,31.0,-100.00,WSW,239,2.0,6.0,85,0.00,,,0.00,0.000000,,2013-11-13 15:53:00,
2013-11-13 09:03:00,35.0,31.0,-100.00,WSW,239,2.0,6.0,85,0.00,,,0.00,0.000000,,2013-11-13 16:03:00,
2013-11-13 09:12:00,35.0,31.0,-100.00,WSW,239,2.0,6.0,85,0.00,,,0.00,0.000000,,2013-11-13 16:12:00,
2013-11-13 09:43:00,35.0,31.0,-100.00,WSW,253,2.0,5.0,84,0.00,,,0.00,12.000000,,2013-11-13 16:43:00,
2013-11-13 09:53:00,35.0,31.0,-100.00,WSW,253,2.0,5.0,84,0.00,,,0.00,12.000000,,2013-11-13 16:53:00,
2013-11-13 10:02:00,35.0,31.0,-100.00,WSW,253,2.0,5.0,84,0.00,,,0.00,12.000000,,2013-11-13 17:02:00,
2013-11-13 10:12:00,35.0,31.0,-100.00,WSW,253,2.0,5.0,84,0.00,,,0.00,12.000000,,2013-11-13 17:12:00,
2013-11-13 10:42:00,36.0,31.0,-100.00,WSW,249,2.0,3.0,82,0.00,,,0.00,53.000000,,2013-11-13 17:42:00,
2013-11-13 10:52:00,36.0,31.0,-100.00,WSW,249,2.0,3.0,82,0.00,,,0.00,53.000000,,2013-11-13 17:52:00,
2013-11-13 11:02:00,36.0,31.0,-100.00,WSW,249,2.0,3.0,82,0.00,,,0.00,53.000000,,2013-11-13 18:02:00,
2013-11-13 11:12:00,36.0,31.0,-100.00,WSW,249,2.0,3.0,82,0.00,,,0.00,53.000000,,2013-11-13 18:12:00,
2013-11-13 11:42:00,35.0,30.0,-100.00,WSW,244,3.0,5.0,83,0.00,,,0.00,81.000000,,2013-11-13 18:42:00,
2013-11-13 11:52:00,35.0,30.0,-100.00,WSW,244,3.0,5.0,83,0.00,,,0.00,81.000000,,2013-11-13 18:52:00,
2013-11-13 12:02:00,35.0,30.0,-100.00,WSW,244,3.0,5.0,83,0.00,,,0.00,81.000000,,2013-11-13 19:02:00,
2013-11-13 12:11:00,35.0,30.0,-100.00,WSW,244,3.0,5.0,83,0.00,,,0.00,81.000000,,2013-11-13 19:11:00,
2013-11-13 12:42:00,36.0,32.0,-100.00,SW,229,3.0,5.0,85,0.00,,,0.00,221.000000,,2013-11-13 19:42:00,
2013-11-13 12:52:00,36.0,32.0,-100.00,SW,229,3.0,5.0,85,0.00,,,0.00,221.000000,,2013-11-13 19:52:00,
2013-11-13 13:02:00,36.0,32.0,-100.00,SW,229,3.0,5.0,85,0.00,,,0.00,221.000000,,2013-11-13 20:02:00,
2013-11-13 13:11:00,36.0,32.0,-100.00,SW,229,3.0,5.0,85,0.00,,,0.00,221.000000,,2013-11-13 20:11:00,
2013-11-13 13:42:00,36.0,29.0,-100.00,SW,236,3.0,6.0,76,0.00,,,0.00,227.000000,,2013-11-13 20:42:00,
2013-11-13 13:52:00,36.0,29.0,-100.00,SW,236,3.0,6.0,76,0.00,,,0.00,227.000000,,2013-11-13 20:52:00,
2013-11-13 14:01:00,36.0,29.0,-100.00,SW,236,3.0,6.0,76,0.00,,,0.00,227.000000,,2013-11-13 21:01:00,
2013-11-13 14:11:00,36.0,29.0,-100.00,SW,236,3.0,6.0,76,0.00,,,0.00,227.000000,,2013-11-13 21:11:00,
2013-11-13 14:43:00,36.0,28.0,-100.00,WSW,250,4.0,10.0,71,0.00,,,0.00,215.000000,,2013-11-13 21:43:00,
2013-11-13 14:53:00,36.0,28.0,-100.00,WSW,250,4.0,10.0,71,0.00,,,0.00,215.000000,,2013-11-13 21:53:00,
2013-11-13 15:03:00,36.0,28.0,-100.00,WSW,250,4.0,10.0,71,0.00,,,0.00,215.000000,,2013-11-13 22:03:00,
2013-11-13 15:13:00,36.0,28.0,-100.00,WSW,250,4.0,10.0,71,0.00,,,0.00,215.000000,,2013-11-13 22:13:00,
2013-11-13 15:42:00,35.0,23.0,-100.00,WSW,244,3.0,7.0,61,0.00,,,0.00,170.000000,,2013-11-13 22:42:00,
2013-11-13 15:53:00,35.0,23.0,-100.00,WSW,244,3.0,7.0,61,0.00,,,0.00,170.000000,,2013-11-13 22:53:00,
2013-11-13 16:02:00,35.0,23.0,-100.00,WSW,244,3.0,7.0,61,0.00,,,0.00,170.000000,,2013-11-13 23:02:00,
2013-11-13 16:11:00,35.0,23.0,-100.00,WSW,244,3.0,7.0,61,0.00,,,0.00,170.000000,,2013-11-13 23:11:00,
2013-11-13 16:43:00,33.0,24.0,-100.00,WSW,238,4.0,6.0,69,0.00,,,-99.99,72.000000,,2013-11-13 23:43:00,
2013-11-13 16:53:00,33.0,24.0,-100.00,WSW,238,4.0,6.0,69,0.00,,,-99.99,72.000000,,2013-11-13 23:53:00,
2013-11-13 17:02:00,33.0,24.0,-100.00,WSW,238,4.0,6.0,69,0.00,,,-99.99,72.000000,,2013-11-14 00:02:00,
2013-11-13 17:11:00,33.0,24.0,-100.00,WSW,238,4.0,6.0,69,0.00,,,-99.99,72.000000,,2013-11-14 00:11:00,
2013-11-13 17:42:00,31.0,24.0,-100.00,SW,236,3.0,7.0,74,0.00,,,0.00,74.000000,,2013-11-14 00:42:00,
2013-11-13 17:52:00,31.0,24.0,-100.00,SW,236,3.0,7.0,74,0.00,,,0.00,74.000000,,2013-11-14 00:52:00,
2013-11-13 18:02:00,31.0,24.0,-100.00,SW,236,3.0,7.0,74,0.00,,,0.00,74.000000,,2013-11-14 01:02:00,
2013-11-13 18:11:00,31.0,24.0,-100.00,SW,236,3.0,7.0,74,0.00,,,0.00,74.000000,,2013-11-14 01:11:00,
2013-11-13 18:42:00,31.0,24.0,-100.00,WSW,246,3.0,5.0,76,0.00,,,0.00,7.000000,,2013-11-14 01:42:00,
2013-11-13 18:52:00,31.0,24.0,-100.00,WSW,246,3.0,5.0,76,0.00,,,0.00,7.000000,,2013-11-14 01:52:00,
2013-11-13 19:01:00,31.0,24.0,-100.00,WSW,246,3.0,5.0,76,0.00,,,0.00,7.000000,,2013-11-14 02:01:00,
2013-11-13 19:12:00,31.0,24.0,-100.00,WSW,246,3.0,5.0,76,0.00,,,0.00,7.000000,,2013-11-14 02:12:00,
2013-11-13 19:53:00,30.0,24.0,-100.00,WSW,237,2.0,5.0,77,0.00,,,0.00,0.000000,,2013-11-14 02:53:00,
2013-11-13 20:01:00,30.0,24.0,-100.00,WSW,237,2.0,5.0,77,0.00,,,0.00,0.000000,,2013-11-14 03:01:00,
2013-11-13 20:11:00,30.0,24.0,-100.00,WSW,237,2.0,5.0,77,0.00,,,0.00,0.000000,,2013-11-14 03:11:00,
2013-11-13 20:14:00,30.0,24.0,-100.00,WSW,242,2.0,6.0,77,0.00,,,0.00,0.000000,,2013-11-14 03:14:00,
2013-11-13 20:44:00,30.0,24.0,-100.00,WSW,242,2.0,6.0,77,0.00,,,0.00,0.000000,,2013-11-14 03:44:00,
2013-11-13 20:54:00,30.0,24.0,-100.00,WSW,242,2.0,6.0,77,0.00,,,0.00,0.000000,,2013-11-14 03:54:00,
2013-11-13 21:03:00,30.0,24.0,-100.00,WSW,242,2.0,6.0,77,0.00,,,0.00,0.000000,,2013-11-14 04:03:00,
2013-11-13 21:43:00,29.0,22.0,-100.00,WSW,240,3.0,5.0,76,0.00,,,0.00,0.000000,,2013-11-14 04:43:00,
2013-11-13 21:54:00,29.0,22.0,-100.00,WSW,240,3.0,5.0,76,0.00,,,0.00,0.000000,,2013-11-14 04:54:00,
2013-11-13 22:03:00,29.0,22.0,-100.00,WSW,240,3.0,5.0,76,0.00,,,0.00,0.000000,,2013-11-14 05:03:00,
2013-11-13 22:13:00,29.0,22.0,-100.00,WSW,240,3.0,5.0,76,0.00,,,0.00,0.000000,,2013-11-14 05:13:00,
2013-11-13 22:44:00,28.0,22.0,-100.00,WSW,250,2.0,5.0,79,0.00,,,0.00,0.000000,,2013-11-14 05:44:00,
2013-11-13 22:53:00,28.0,22.0,-100.00,WSW,250,2.0,5.0,79,0.00,,,0.00,0.000000,,2013-11-14 05:53:00,
2013-11-13 23:03:00,28.0,22.0,-100.00,WSW,250,2.0,5.0,79,0.00,,,0.00,0.000000,,2013-11-14 06:03:00,
2013-11-13 23:12:00,28.0,22.0,-100.00,WSW,250,2.0,5.0,79,0.00,,,0.00,0.000000,,2013-11-14 06:12:00,
2013-11-13 23:42:00,28.0,21.0,-100.00,SW,234,2.0,5.0,75,0.00,,,0.00,0.000000,,2013-11-14 06:42:00,
2013-11-13 23:52:00,28.0,21.0,-100.00,SW,234,2.0,5.0,75,0.00,,,0.00,0.000000,,2013-11-14 06:52:00,